Regional Weather Roundup
Issued by NWS Sioux Falls, SD

Home | Current Version | Previous Version | Graphics & Text | Print | Product List | Glossary Off
Versions: 1 2 3 4 5 6 7 8 9 10 11 12 13 14 15 16 17 18 19 20 21 22 23 24 25 26 27 28 29 30 31 32 33 34 35 36 37 38 39 40 41 42 43 44 45 46 47 48 49 50

000
ASUS43 KFSD 031510
RWRFSD

WEATHER ROUNDUP FOR SE SOUTH DAKOTA/SW MINNESOTA/NW IOWA
NATIONAL WEATHER SERVICE SIOUX FALLS SD
1000 AM CDT FRI JUL 03 2015

NOTE: "FAIR" INDICATES FEW OR NO CLOUDS BELOW 12,000 FEET WITH NO
SIGNIFICANT WEATHER AND OR OBSTRUCTIONS TO VISIBILITY.


SDZ038>040-050-052>070-031600-
SOUTHEAST SOUTH DAKOTA

CITY           SKY/WX    TMP DP  RH WIND       PRES   REMARKS
BROOKINGS      CLOUDY    63  59  88 W5        30.03F
CHAMBERLAIN    CLOUDY    65  65 100 W3        30.03R FOG
HURON          MOSUNNY   64  63  96 CALM      30.00S
MADISON        CLOUDY    63  63 100 W6        30.03S
MITCHELL       CLOUDY    64  64 100 SW5       30.02F FOG
SIOUX FALLS    CLOUDY    64  60  87 CALM      30.03S
WINNER         FAIR      73  62  68 VRB5      30.04S
YANKTON        CLOUDY    66  61  82 CALM      30.02S
$$

MNZ071-072-080-081-089-090-097-098-031600-
SOUTHWEST MINNESOTA

CITY           SKY/WX    TMP DP  RH WIND       PRES   REMARKS
FAIRMONT       SUNNY     70  55  60 NW7       30.01S
JACKSON        SUNNY     68  61  77 W8        30.03S
LUVERNE        MOSUNNY   63  61  94 W5        30.04R
MARSHALL       SUNNY     70  55  60 W8        29.99S
MONTEVIDEO     SUNNY     72  63  73 NW6       29.99S
PIPESTONE      SUNNY     64  57  77 W6        30.03S
REDWOOD FALLS  SUNNY     69  59  70 VRB5      29.99F
TRACY          SUNNY     69  59  70 W7        30.01S
WINDOM         SUNNY     70  61  73 W8        30.02S
WORTHINGTON    SUNNY     64  57  77 W6        30.03S
$$

IAZ001>003-012>014-020>022-031-032-NEZ013-014-SDZ071-031600-
NORTHWEST IOWA

CITY           SKY/WX    TMP DP  RH WIND       PRES   REMARKS
CHEROKEE       SUNNY     62  60  93 CALM      30.03F
DENISON        SUNNY     64  57  77 CALM      30.02R
ESTHERVILLE    SUNNY     67  58  72 NW5       30.02S
LE MARS        SUNNY     64  57  77 CALM      30.04S
ORANGE CITY    SUNNY     64  54  68 CALM      30.04R
SHELDON        MOSUNNY   66  66 100 VRB5      30.02S
SIOUX CITY     SUNNY     66  56  70 CALM      30.03R
SPENCER        SUNNY     68  56  65 W5        30.03S
STORM LAKE     SUNNY     66  55  68 W5        30.04S
$$

ABBREVIATIONS USED IN REMARKS
   TC - TEMPERATURE IN CELSIUS
  WCI - WIND CHILL INDEX
   HX - HEAT INDEX
  VSB - VISIBILITY




USA.gov is the U.S. government's official web portal to all federal, state and local government web resources and services.